Weather in Kirovskoye

Russia / Kamchatka Krai     54°13′45″N   155°48′35″E
temp.,
°C
wind,
m/s
gust,
m/s
humid.,
%
clouds,
%
prec.,
mm/h
press.,
hPa
HPBL,
m
20 january, thu
thu2000:00−3ene71261100 0.0 1006267
03:00−4ene7115813 0.0 1006197
06:00−4ne71161100 0.1 1005173
09:00−2ene81261100 0.2 1005291
12:00−2ene81261100 0.4 1006327
15:00−3ene6964100 0.1 1006269
18:00−3e5869100 0.3 1007175
21:00−4ne2365100 0.0 1008132
21 january, fri
fri2100:00−7e3476100 0.0 1008100
03:00−7se3386100 0.0 1008113
06:00−6ese3387100 0.0 1008139
09:00−7ese3479100 0.0 1009135
12:00−7se347441 0.0 1010135
15:00−5sse34715 0.0 1010168
18:00−6ese347818 0.0 1010108
21:00−7ese448082 0.0 101098
22 january, sat
sat2200:00−9ese447896 0.0 1010106
03:00−9ese4474100 0.0 1010112
06:00−8ese4476100 0.0 1010134
09:00−9e3375100 0.0 1011126
12:00−8ene3374100 0.1 1011126
15:00−6nne2275100 0.1 1010174
18:00−7nne337671 0.1 1010228
21:00−9nne33777 0.0 1011214
23 january, sun
sun2300:00−10nne348018 0.0 1011212
03:00−11nne458727 0.0 1010189
06:00−12nne448828 0.0 1010154
09:00−12ene338933 0.0 1010112
12:00−11ene328688 0.0 1010108
15:00−8ese2276100 0.0 1009146
18:00−8sse2290100 0.1 1009161
21:00−8sse3395100 0.1 1009193
24 january, mon
mon2400:00−8sse3489100 0.3 1008284
03:00−7se2381100 0.3 1008483
06:00−7sse1379100 0.6 1008520
09:00−7sse1381100 0.4 1008501
12:00−6s1380100 0.8 1008525
15:00−5s2370100 0.3 1008618
18:00−6sse2377100 0.4 1008533
21:00−6sse3380100 0.3 1009472